| time (UTC) | temp C | wind direction | speed KPH | gust KPH | rain 1hr cm | rain 24hr cm | rain mn cm | humidity % | barometer mb |
| 20260508130546 | 21 | 200 | 16.1 | 25.7 | 0.00 | 0.00 | 0.00 | 48 | 1017.4 |
| 20260508125648 | 22 | 273 | 12.9 | 25.7 | 0.00 | 0.00 | 0.00 | 47 | 1017.4 |
| 20260508125043 | 22 | 261 | 11.3 | 20.9 | 0.00 | 0.00 | 0.00 | 46 | 1017.5 |
| 20260508124549 | 21 | 208 | 11.3 | 24.1 | 0.00 | 0.00 | 0.00 | 46 | 1017.6 |
| 20260508124046 | 21 | 197 | 12.9 | 24.1 | 0.00 | 0.00 | 0.00 | 46 | 1017.7 |
| 20260508123542 | 21 | 198 | 14.5 | 30.6 | 0.00 | 0.00 | 0.00 | 46 | 1017.8 |
| 20260508123052 | 21 | 215 | 16.1 | 30.6 | 0.00 | 0.00 | 0.00 | 45 | 1017.9 |
| 20260508122541 | 22 | 219 | 16.1 | 29.0 | 0.00 | 0.00 | 0.00 | 45 | 1018.1 |
| 20260508122041 | 22 | 235 | 19.3 | 27.4 | 0.00 | 0.00 | 0.00 | 45 | 1018.1 |
| 20260508121544 | 22 | 215 | 16.1 | 27.4 | 0.00 | 0.00 | 0.00 | 45 | 1018.1 |
| 20260508121039 | 22 | 200 | 16.1 | 24.1 | 0.00 | 0.00 | 0.00 | 44 | 1018.2 |
| 20260508120539 | 22 | 248 | 9.7 | 22.5 | 0.00 | 0.00 | 0.00 | 45 | 1018.3 |
| 20260508120038 | 22 | 204 | 14.5 | 30.6 | 0.00 | 0.00 | 0.00 | 46 | 1018.2 |
| 20260508115537 | 21 | 211 | 16.1 | 30.6 | 0.00 | 0.00 | 0.00 | 45 | 1018.2 |
| 20260508115036 | 22 | 202 | 12.9 | 25.7 | 0.00 | 0.00 | 0.00 | 46 | 1018.3 |
| 20260508114545 | 22 | 234 | 14.5 | 25.7 | 0.00 | 0.00 | 0.00 | 45 | 1018.3 |
| 20260508114034 | 22 | 219 | 12.9 | 24.1 | 0.00 | 0.00 | 0.00 | 46 | 1018.0 |
| 20260508113533 | 21 | 221 | 8.0 | 12.9 | 0.00 | 0.00 | 0.00 | 51 | 1018.2 |
| 20260508113033 | 21 | 205 | 1.6 | 9.7 | 0.00 | 0.00 | 0.00 | 50 | 1018.1 |
| 20260508112531 | 21 | 130 | 3.2 | 11.3 | 0.00 | 0.00 | 0.00 | 50 | 1017.8 |
| 20260508112032 | 21 | 290 | 4.8 | 11.3 | 0.00 | 0.00 | 0.00 | 50 | 1018.7 |
| 20260508111531 | 21 | 285 | 1.6 | 6.4 | 0.00 | 0.00 | 0.00 | 51 | 1018.6 |
| 20260508111030 | 21 | 283 | 3.2 | 8.0 | 0.00 | 0.00 | 0.00 | 52 | 1018.6 |
| 20260508110531 | 20 | 304 | 4.8 | 11.3 | 0.00 | 0.00 | 0.00 | 52 | 1018.7 |
| 20260508110034 | 20 | 304 | 6.4 | 11.3 | 0.00 | 0.00 | 0.00 | 53 | 1019.0 |
| 20260508105529 | 20 | 257 | 4.8 | 9.7 | 0.00 | 0.00 | 0.00 | 53 | 1018.9 |
| 20260508105032 | 20 | 260 | 4.8 | 11.3 | 0.00 | 0.00 | 0.00 | 54 | 1019.1 |
| 20260508104529 | 20 | 263 | 6.4 | 11.3 | 0.00 | 0.00 | 0.00 | 53 | 1019.2 |
| 20260508104028 | 20 | 240 | 3.2 | 12.9 | 0.00 | 0.00 | 0.00 | 54 | 1019.2 |
| 20260508103528 | 20 | 254 | 8.0 | 14.5 | 0.00 | 0.00 | 0.00 | 54 | 1019.4 |
| 20260508103037 | 20 | 269 | 11.3 | 14.5 | 0.00 | 0.00 | 0.00 | 54 | 1019.5 |
| 20260508102528 | 20 | 252 | 9.7 | 14.5 | 0.00 | 0.00 | 0.00 | 54 | 1019.5 |
| 20260508102028 | 20 | 254 | 6.4 | 11.3 | 0.00 | 0.00 | 0.00 | 55 | 1019.4 |
| 20260508101526 | 20 | 232 | 4.8 | 12.9 | 0.00 | 0.00 | 0.00 | 55 | 1019.3 |
| 20260508101025 | 20 | 208 | 6.4 | 11.3 | 0.00 | 0.00 | 0.00 | 55 | 1019.3 |
| 20260508100525 | 20 | 204 | 6.4 | 16.1 | 0.00 | 0.00 | 0.00 | 55 | 1019.3 |
| 20260508100024 | 20 | 261 | 8.0 | 16.1 | 0.00 | 0.00 | 0.00 | 56 | 1019.5 |
| 20260508095524 | 20 | 219 | 6.4 | 14.5 | 0.00 | 0.00 | 0.00 | 57 | 1019.6 |
| 20260508095027 | 20 | 268 | 11.3 | 16.1 | 0.00 | 0.00 | 0.00 | 57 | 1019.6 |
| 20260508094539 | 20 | 246 | 11.3 | 16.1 | 0.00 | 0.00 | 0.00 | 57 | 1019.8 |
| 20260508094023 | 20 | 259 | 8.0 | 16.1 | 0.00 | 0.00 | 0.00 | 57 | 1020.0 |
| 20260508093523 | 20 | 237 | 9.7 | 16.1 | 0.00 | 0.00 | 0.00 | 56 | 1020.0 |
| 20260508093026 | 20 | 288 | 11.3 | 14.5 | 0.00 | 0.00 | 0.00 | 55 | 1020.1 |
| 20260508092522 | 20 | 253 | 11.3 | 14.5 | 0.00 | 0.00 | 0.00 | 55 | 1020.0 |
| 20260508092021 | 20 | 263 | 8.0 | 16.1 | 0.00 | 0.00 | 0.00 | 55 | 1020.0 |
| 20260508091539 | 20 | 243 | 11.3 | 16.1 | 0.00 | 0.00 | 0.00 | 55 | 1020.1 |
| 20260508091021 | 20 | 248 | 8.0 | 19.3 | 0.00 | 0.00 | 0.00 | 55 | 1020.1 |
| 20260508090521 | 20 | 227 | 9.7 | 19.3 | 0.00 | 0.00 | 0.00 | 56 | 1020.1 |
| 20260508090020 | 20 | 229 | 12.9 | 19.3 | 0.00 | 0.00 | 0.00 | 56 | 1020.3 |
| 20260508085522 | 19 | 221 | 8.0 | 16.1 | 0.00 | 0.00 | 0.00 | 59 | 1020.3 |
| 20260508085019 | 19 | 261 | 9.7 | 14.5 | 0.00 | 0.00 | 0.00 | 59 | 1020.3 |
| 20260508084516 | 19 | 256 | 4.8 | 12.9 | 0.00 | 0.00 | 0.00 | 61 | 1020.3 |
| 20260508084016 | 19 | 257 | 8.0 | 12.9 | 0.00 | 0.00 | 0.00 | 60 | 1020.3 |
| 20260508083516 | 19 | 246 | 6.4 | 12.9 | 0.00 | 0.00 | 0.00 | 60 | 1020.4 |
| 20260508083016 | 19 | 277 | 6.4 | 11.3 | 0.00 | 0.00 | 0.00 | 60 | 1020.4 |
| 20260508082519 | 19 | 273 | 6.4 | 11.3 | 0.00 | 0.00 | 0.00 | 60 | 1020.4 |
| 20260508082015 | 19 | 216 | 4.8 | 12.9 | 0.00 | 0.00 | 0.00 | 58 | 1020.3 |
| 20260508081526 | 19 | 218 | 6.4 | 16.1 | 0.00 | 0.00 | 0.00 | 58 | 1020.4 |
| 20260508081017 | 19 | 254 | 8.0 | 16.1 | 0.00 | 0.00 | 0.00 | 57 | 1020.5 |
| 20260508080514 | 19 | 276 | 8.0 | 14.5 | 0.00 | 0.00 | 0.00 | 56 | 1020.4 |
| 20260508080014 | 19 | 253 | 8.0 | 20.9 | 0.00 | 0.00 | 0.00 | 54 | 1020.5 |
| 20260508075514 | 19 | 258 | 12.9 | 20.9 | 0.00 | 0.00 | 0.00 | 55 | 1020.5 |
| 20260508075013 | 19 | 270 | 11.3 | 19.3 | 0.00 | 0.00 | 0.00 | 54 | 1020.5 |
| 20260508074513 | 19 | 265 | 14.5 | 19.3 | 0.00 | 0.00 | 0.00 | 53 | 1020.6 |
| 20260508074013 | 20 | 264 | 9.7 | 14.5 | 0.00 | 0.00 | 0.00 | 52 | 1020.5 |
| 20260508073511 | 20 | 211 | 8.0 | 14.5 | 0.00 | 0.00 | 0.00 | 50 | 1020.6 |
| 20260508073010 | 20 | 213 | 4.8 | 12.9 | 0.00 | 0.00 | 0.00 | 50 | 1020.6 |
| 20260508072508 | 19 | 246 | 6.4 | 12.9 | 0.00 | 0.00 | 0.00 | 50 | 1020.8 |
| 20260508072007 | 19 | 201 | 6.4 | 14.5 | 0.00 | 0.00 | 0.00 | 49 | 1021.0 |
| 20260508071517 | 19 | 248 | 8.0 | 14.5 | 0.00 | 0.00 | 0.00 | 48 | 1021.1 |
| 20260508071004 | 19 | 234 | 9.7 | 12.9 | 0.00 | 0.00 | 0.00 | 47 | 1021.1 |
| 20260508070504 | 19 | 219 | 8.0 | 14.5 | 0.00 | 0.00 | 0.00 | 46 | 1021.2 |
| 20260508070004 | 19 | 242 | 9.7 | 16.1 | 0.00 | 0.00 | 0.00 | 46 | 1021.2 |
| 20260508065505 | 19 | 249 | 9.7 | 17.7 | 0.00 | 0.00 | 0.00 | 47 | 1021.4 |
| 20260508065002 | 19 | 261 | 9.7 | 16.1 | 0.00 | 0.00 | 0.00 | 47 | 1021.3 |
| 20260508064505 | 19 | 265 | 11.3 | 16.1 | 0.00 | 0.00 | 0.00 | 47 | 1021.2 |
| 20260508064100 | 19 | 232 | 8.0 | 14.5 | 0.00 | 0.00 | 0.00 | 47 | 1021.1 |
| 20260508063559 | 19 | 265 | 8.0 | 14.5 | 0.00 | 0.00 | 0.00 | 46 | 1021.0 |
| 20260508063058 | 19 | 243 | 8.0 | 16.1 | 0.00 | 0.00 | 0.00 | 46 | 1020.9 |
| 20260508062557 | 19 | 244 | 11.3 | 16.1 | 0.00 | 0.00 | 0.00 | 47 | 1020.9 |
| 20260508062056 | 19 | 242 | 9.7 | 14.5 | 0.00 | 0.00 | 0.00 | 48 | 1020.8 |
| 20260508061557 | 19 | 273 | 8.0 | 12.9 | 0.00 | 0.00 | 0.00 | 50 | 1020.8 |
| 20260508061056 | 19 | 257 | 8.0 | 12.9 | 0.00 | 0.00 | 0.00 | 50 | 1020.7 |
| 20260508060555 | 19 | 280 | 8.0 | 12.9 | 0.00 | 0.00 | 0.00 | 50 | 1020.6 |
| 20260508060054 | 19 | 271 | 8.0 | 12.9 | 0.00 | 0.00 | 0.00 | 52 | 1020.5 |
| 20260508055557 | 19 | 307 | 6.4 | 11.3 | 0.00 | 0.00 | 0.00 | 54 | 1020.3 |
| 20260508055052 | 19 | 278 | 4.8 | 8.0 | 0.00 | 0.00 | 0.00 | 54 | 1020.0 |
| 20260508054607 | 19 | 278 | 3.2 | 9.7 | 0.00 | 0.00 | 0.00 | 56 | 1019.8 |
| 20260508054051 | 18 | 267 | 4.8 | 9.7 | 0.00 | 0.00 | 0.00 | 56 | 1019.6 |
| 20260508053550 | 18 | 254 | 4.8 | 6.4 | 0.00 | 0.00 | 0.00 | 55 | 1019.4 |
| 20260508053053 | 18 | 252 | 3.2 | 6.4 | 0.00 | 0.00 | 0.00 | 55 | 1019.3 |
| 20260508052549 | 18 | 286 | 1.6 | 4.8 | 0.00 | 0.00 | 0.00 | 55 | 1019.2 |
| 20260508052048 | 19 | 292 | 1.6 | 4.8 | 0.00 | 0.00 | 0.00 | 54 | 1019.1 |
| 20260508051548 | 19 | 219 | 1.6 | 4.8 | 0.00 | 0.00 | 0.00 | 54 | 1019.0 |
| 20260508051048 | 18 | 205 | 3.2 | 4.8 | 0.00 | 0.00 | 0.00 | 54 | 1018.9 |
| 20260508050547 | 18 | 191 | 0.0 | 3.2 | 0.00 | 0.00 | 0.00 | 55 | 1018.9 |
| 20260508050046 | 18 | 190 | 0.0 | 3.2 | 0.00 | 0.00 | 0.00 | 55 | 1019.0 |
| 20260508045545 | 18 | 190 | 0.0 | 4.8 | 0.00 | 0.00 | 0.00 | 56 | 1018.9 |
| 20260508045043 | 18 | 194 | 3.2 | 6.4 | 0.00 | 0.00 | 0.00 | 56 | 1018.8 |
| 20260508044544 | 18 | 211 | 3.2 | 4.8 | 0.00 | 0.00 | 0.00 | 55 | 1018.9 |
| 20260508044044 | 18 | 326 | 1.6 | 4.8 | 0.00 | 0.00 | 0.00 | 54 | 1018.9 |
| 20260508043539 | 18 | 332 | 1.6 | 4.8 | 0.00 | 0.00 | 0.00 | 57 | 1018.8 |
| 20260508043038 | 18 | 342 | 1.6 | 4.8 | 0.00 | 0.00 | 0.00 | 56 | 1018.7 |
| 20260508042537 | 18 | 10 | 1.6 | 4.8 | 0.00 | 0.00 | 0.00 | 52 | 1018.4 |
| 20260508042036 | 18 | 38 | 0.0 | 6.4 | 0.00 | 0.00 | 0.00 | 53 | 1018.4 |
| 20260508041538 | 18 | 12 | 3.2 | 6.4 | 0.00 | 0.00 | 0.00 | 56 | 1018.4 |
| 20260508041035 | 17 | 61 | 3.2 | 8.0 | 0.00 | 0.00 | 0.00 | 57 | 1018.3 |
| 20260508040535 | 17 | 71 | 3.2 | 8.0 | 0.00 | 0.00 | 0.00 | 61 | 1018.2 |
| 20260508040036 | 17 | 360 | 4.8 | 8.0 | 0.00 | 0.00 | 0.00 | 61 | 1018.2 |
| 20260508035534 | 18 | 355 | 3.2 | 8.0 | 0.00 | 0.00 | 0.00 | 57 | 1018.1 |
| 20260508035033 | 18 | 76 | 3.2 | 6.4 | 0.00 | 0.00 | 0.00 | 55 | 1017.9 |
| 20260508034538 | 18 | 67 | 1.6 | 4.8 | 0.00 | 0.00 | 0.00 | 57 | 1018.0 |
| 20260508034032 | 18 | 54 | 1.6 | 4.8 | 0.00 | 0.00 | 0.00 | 58 | 1017.9 |
| 20260508033532 | 18 | 48 | 1.6 | 8.0 | 0.00 | 0.00 | 0.00 | 59 | 1018.0 |
| 20260508033036 | 18 | 17 | 3.2 | 8.0 | 0.00 | 0.00 | 0.00 | 58 | 1018.0 |
| 20260508032533 | 18 | 31 | 3.2 | 6.4 | 0.00 | 0.00 | 0.00 | 59 | 1017.9 |
| 20260508032032 | 17 | 36 | 3.2 | 6.4 | 0.00 | 0.00 | 0.00 | 60 | 1018.0 |
| 20260508031536 | 17 | 11 | 4.8 | 6.4 | 0.00 | 0.00 | 0.00 | 60 | 1018.1 |
| 20260508031034 | 18 | 69 | 1.6 | 4.8 | 0.00 | 0.00 | 0.00 | 59 | 1018.0 |
| 20260508030531 | 18 | 88 | 0.0 | 4.8 | 0.00 | 0.00 | 0.00 | 57 | 1017.7 |
| 20260508030035 | 17 | 74 | 0.0 | 8.0 | 0.00 | 0.00 | 0.00 | 58 | 1017.7 |
| 20260508025535 | 17 | 71 | 4.8 | 8.0 | 0.00 | 0.00 | 0.00 | 60 | 1017.6 |
| 20260508025029 | 17 | 30 | 3.2 | 6.4 | 0.00 | 0.00 | 0.00 | 61 | 1018.0 |
| 20260508024529 | 17 | 46 | 0.0 | 4.8 | 0.00 | 0.00 | 0.00 | 64 | 1018.0 |
| 20260508024029 | 17 | 14 | 1.6 | 4.8 | 0.00 | 0.00 | 0.00 | 64 | 1018.0 |
| 20260508023529 | 17 | 72 | 1.6 | 4.8 | 0.00 | 0.00 | 0.00 | 60 | 1018.0 |
| 20260508023036 | 17 | 71 | 1.6 | 6.4 | 0.00 | 0.00 | 0.00 | 61 | 1018.1 |
| 20260508022528 | 17 | 46 | 1.6 | 6.4 | 0.00 | 0.00 | 0.00 | 61 | 1018.2 |
| 20260508022028 | 17 | 61 | 0.0 | 4.8 | 0.00 | 0.00 | 0.00 | 62 | 1018.1 |
| 20260508021530 | 17 | 59 | 1.6 | 4.8 | 0.00 | 0.00 | 0.00 | 63 | 1017.9 |
| 20260508021028 | 17 | 58 | 1.6 | 6.4 | 0.00 | 0.00 | 0.00 | 64 | 1018.1 |
| 20260508020527 | 17 | 61 | 3.2 | 6.4 | 0.00 | 0.00 | 0.00 | 65 | 1018.1 |
| 20260508020027 | 17 | 29 | 0.0 | 6.4 | 0.00 | 0.00 | 0.00 | 67 | 1018.2 |
| 20260508015527 | 17 | 44 | 3.2 | 6.4 | 0.00 | 0.00 | 0.00 | 66 | 1018.1 |
| 20260508015026 | 17 | 57 | 1.6 | 4.8 | 0.00 | 0.00 | 0.00 | 66 | 1018.1 |
| 20260508014525 | 17 | 57 | 0.0 | 3.2 | 0.00 | 0.00 | 0.00 | 67 | 1018.1 |
| 20260508014023 | 17 | 58 | 0.0 | 4.8 | 0.00 | 0.00 | 0.00 | 67 | 1018.4 |
| 20260508013523 | 17 | 57 | 0.0 | 4.8 | 0.00 | 0.00 | 0.00 | 67 | 1018.3 |
| 20260508013023 | 17 | 52 | 1.6 | 4.8 | 0.00 | 0.00 | 0.00 | 67 | 1018.4 |
| 20260508012525 | 17 | 56 | 1.6 | 4.8 | 0.00 | 0.00 | 0.00 | 67 | 1018.5 |
| 20260508012022 | 17 | 55 | 1.6 | 3.2 | 0.00 | 0.00 | 0.00 | 67 | 1018.5 |
| 20260508011521 | 17 | 54 | 0.0 | 3.2 | 0.00 | 0.00 | 0.00 | 67 | 1018.6 |
| 20260508011021 | 17 | 49 | 0.0 | 3.2 | 0.00 | 0.00 | 0.00 | 67 | 1018.7 |
| 20260508010521 | 17 | 46 | 0.0 | 0.0 | 0.00 | 0.00 | 0.00 | 67 | 1018.8 |
| 20260508010022 | 17 | 44 | 0.0 | 0.0 | 0.00 | 0.00 | 0.00 | 67 | 1018.8 |
| 20260508005520 | 17 | 43 | 0.0 | 1.6 | 0.00 | 0.00 | 0.00 | 66 | 1018.7 |
| 20260508005020 | 17 | 43 | 0.0 | 3.2 | 0.00 | 0.00 | 0.00 | 67 | 1018.9 |
| 20260508004519 | 17 | 34 | 0.0 | 3.2 | 0.00 | 0.00 | 0.00 | 66 | 1018.9 |
| 20260508004020 | 17 | 33 | 0.0 | 3.2 | 0.00 | 0.00 | 0.00 | 66 | 1018.9 |
| 20260508003519 | 17 | 29 | 0.0 | 3.2 | 0.00 | 0.00 | 0.00 | 66 | 1018.8 |
| 20260508003018 | 17 | 26 | 0.0 | 3.2 | 0.00 | 0.00 | 0.00 | 66 | 1018.8 |
| 20260508002518 | 17 | 17 | 0.0 | 4.8 | 0.00 | 0.00 | 0.00 | 66 | 1018.8 |
| 20260508002018 | 17 | 15 | 1.6 | 4.8 | 0.00 | 0.00 | 0.00 | 66 | 1018.8 |
| 20260508001536 | 17 | 14 | 1.6 | 6.4 | 0.00 | 0.00 | 0.00 | 66 | 1018.9 |
| 20260508001017 | 17 | 346 | 0.0 | 4.8 | 0.00 | 0.00 | 0.00 | 66 | 1018.8 |
| 20260508000516 | 17 | 282 | 0.0 | 0.0 | 0.00 | 0.00 | 0.00 | 66 | 1018.8 |
| 20260508000016 | 17 | 279 | 0.0 | 3.2 | 0.00 | 0.00 | 0.00 | 66 | 1019.0 |
| 20260507235516 | 17 | 279 | 0.0 | 3.2 | 0.00 | 0.00 | 0.00 | 66 | 1019.1 |
| 20260507235017 | 17 | 279 | 0.0 | 9.7 | 0.00 | 0.00 | 0.00 | 66 | 1019.2 |
| 20260507234514 | 17 | 279 | 1.6 | 9.7 | 0.00 | 0.00 | 0.00 | 65 | 1019.3 |
| 20260507234014 | 17 | 277 | 3.2 | 11.3 | 0.00 | 0.00 | 0.00 | 65 | 1019.4 |
| 20260507233513 | 17 | 268 | 4.8 | 11.3 | 0.00 | 0.00 | 0.00 | 65 | 1019.4 |
| 20260507233021 | 17 | 271 | 4.8 | 6.4 | 0.00 | 0.00 | 0.00 | 64 | 1019.6 |
| 20260507232511 | 17 | 279 | 3.2 | 9.7 | 0.00 | 0.00 | 0.00 | 63 | 1019.4 |
| 20260507232011 | 17 | 271 | 3.2 | 9.7 | 0.00 | 0.00 | 0.00 | 63 | 1019.5 |
| 20260507231513 | 18 | 282 | 3.2 | 4.8 | 0.00 | 0.00 | 0.00 | 63 | 1019.6 |
| 20260507231010 | 18 | 281 | 0.0 | 3.2 | 0.00 | 0.00 | 0.00 | 62 | 1019.4 |
| 20260507230513 | 18 | 281 | 0.0 | 3.2 | 0.00 | 0.00 | 0.00 | 62 | 1019.5 |
| 20260507230022 | 18 | 282 | 1.6 | 4.8 | 0.00 | 0.00 | 0.00 | 62 | 1019.5 |
| 20260507225508 | 18 | 282 | 1.6 | 4.8 | 0.00 | 0.00 | 0.00 | 61 | 1019.6 |
| 20260507225010 | 18 | 282 | 1.6 | 4.8 | 0.00 | 0.00 | 0.00 | 61 | 1019.6 |
| 20260507224512 | 18 | 284 | 1.6 | 6.4 | 0.00 | 0.00 | 0.00 | 61 | 1019.7 |
| 20260507224007 | 18 | 284 | 3.2 | 8.0 | 0.00 | 0.00 | 0.00 | 61 | 1019.7 |
| 20260507223507 | 18 | 289 | 3.2 | 8.0 | 0.00 | 0.00 | 0.00 | 60 | 1019.7 |
| 20260507223006 | 18 | 273 | 3.2 | 6.4 | 0.00 | 0.00 | 0.00 | 60 | 1019.7 |
| 20260507222505 | 18 | 281 | 3.2 | 6.4 | 0.00 | 0.00 | 0.00 | 59 | 1019.7 |
| 20260507222005 | 18 | 273 | 3.2 | 6.4 | 0.00 | 0.00 | 0.00 | 59 | 1019.8 |
| 20260507221506 | 18 | 267 | 3.2 | 6.4 | 0.00 | 0.00 | 0.00 | 59 | 1019.8 |
| 20260507221003 | 18 | 271 | 3.2 | 9.7 | 0.00 | 0.00 | 0.00 | 58 | 1019.9 |
| 20260507220503 | 18 | 273 | 4.8 | 9.7 | 0.00 | 0.00 | 0.00 | 58 | 1019.9 |
| 20260507220003 | 18 | 273 | 4.8 | 9.7 | 0.00 | 0.00 | 0.00 | 57 | 1019.9 |
| 20260507215503 | 18 | 265 | 4.8 | 9.7 | 0.00 | 0.00 | 0.00 | 57 | 1020.0 |
| 20260507215100 | 18 | 250 | 4.8 | 8.0 | 0.00 | 0.00 | 0.00 | 57 | 1020.1 |
| 20260507214559 | 18 | 259 | 4.8 | 6.4 | 0.00 | 0.00 | 0.00 | 56 | 1020.2 |
| 20260507214100 | 18 | 268 | 3.2 | 6.4 | 0.00 | 0.00 | 0.00 | 55 | 1020.2 |
| 20260507213601 | 18 | 271 | 3.2 | 11.3 | 0.00 | 0.00 | 0.00 | 54 | 1020.2 |
| 20260507213100 | 18 | 288 | 6.4 | 11.3 | 0.00 | 0.00 | 0.00 | 54 | 1020.3 |
| 20260507212556 | 18 | 267 | 4.8 | 9.7 | 0.00 | 0.00 | 0.00 | 53 | 1020.4 |
| 20260507212056 | 18 | 273 | 3.2 | 9.7 | 0.00 | 0.00 | 0.00 | 52 | 1020.4 |
| 20260507211555 | 18 | 291 | 3.2 | 6.4 | 0.00 | 0.00 | 0.00 | 53 | 1020.3 |
| 20260507211054 | 18 | 282 | 3.2 | 6.4 | 0.00 | 0.00 | 0.00 | 52 | 1020.4 |
| 20260507210554 | 18 | 269 | 3.2 | 6.4 | 0.00 | 0.00 | 0.00 | 52 | 1020.3 |
| 20260507210053 | 18 | 240 | 1.6 | 4.8 | 0.00 | 0.00 | 0.00 | 52 | 1020.4 |
| 20260507205553 | 18 | 238 | 3.2 | 4.8 | 0.00 | 0.00 | 0.00 | 51 | 1020.4 |
| 20260507205053 | 18 | 161 | 0.0 | 3.2 | 0.00 | 0.00 | 0.00 | 50 | 1020.3 |
| 20260507204552 | 19 | 156 | 1.6 | 3.2 | 0.00 | 0.00 | 0.00 | 50 | 1020.2 |
| 20260507204052 | 19 | 154 | 0.0 | 3.2 | 0.00 | 0.00 | 0.00 | 50 | 1020.3 |
| 20260507203552 | 18 | 137 | 0.0 | 3.2 | 0.00 | 0.00 | 0.00 | 51 | 1020.3 |
| 20260507203051 | 18 | 137 | 1.6 | 4.8 | 0.00 | 0.00 | 0.00 | 51 | 1020.3 |
| 20260507202551 | 18 | 136 | 0.0 | 4.8 | 0.00 | 0.00 | 0.00 | 50 | 1020.3 |
| 20260507202051 | 18 | 142 | 1.6 | 4.8 | 0.00 | 0.00 | 0.00 | 50 | 1020.4 |
| 20260507201551 | 18 | 134 | 1.6 | 6.4 | 0.00 | 0.00 | 0.00 | 50 | 1020.4 |
| 20260507201051 | 18 | 136 | 1.6 | 11.3 | 0.00 | 0.00 | 0.00 | 50 | 1020.3 |
| 20260507200551 | 18 | 127 | 3.2 | 11.3 | 0.00 | 0.00 | 0.00 | 50 | 1020.3 |
| 20260507200050 | 18 | 134 | 3.2 | 11.3 | 0.00 | 0.00 | 0.00 | 49 | 1020.2 |
| 20260507195549 | 18 | 136 | 6.4 | 11.3 | 0.00 | 0.00 | 0.00 | 49 | 1020.1 |
| 20260507195052 | 18 | 126 | 4.8 | 11.3 | 0.00 | 0.00 | 0.00 | 49 | 1020.1 |
| 20260507194548 | 19 | 136 | 4.8 | 11.3 | 0.00 | 0.00 | 0.00 | 49 | 1020.2 |
| 20260507194046 | 19 | 121 | 3.2 | 11.3 | 0.00 | 0.00 | 0.00 | 49 | 1020.0 |
| 20260507193546 | 19 | 94 | 3.2 | 11.3 | 0.00 | 0.00 | 0.00 | 49 | 1020.0 |
| 20260507193047 | 19 | 94 | 4.8 | 9.7 | 0.00 | 0.00 | 0.00 | 49 | 1019.8 |
| 20260507192547 | 19 | 68 | 0.0 | 0.0 | 0.00 | 0.00 | 0.00 | 49 | 1020.0 |
| 20260507192046 | 19 | 65 | 0.0 | 3.2 | 0.00 | 0.00 | 0.00 | 49 | 1020.0 |
| 20260507191546 | 19 | 47 | 0.0 | 4.8 | 0.00 | 0.00 | 0.00 | 50 | 1019.9 |
| 20260507191047 | 19 | 46 | 1.6 | 4.8 | 0.00 | 0.00 | 0.00 | 50 | 1019.7 |
| 20260507190545 | 19 | 40 | 3.2 | 6.4 | 0.00 | 0.00 | 0.00 | 49 | 1019.7 |
| 20260507190044 | 20 | 34 | 3.2 | 6.4 | 0.00 | 0.00 | 0.00 | 50 | 1019.9 |
| 20260507185644 | 20 | 19 | 1.6 | 6.4 | 0.00 | 0.00 | 0.00 | 50 | 1019.9 |
| 20260507185044 | 20 | 314 | 1.6 | 6.4 | 0.00 | 0.00 | 0.00 | 49 | 1019.9 |
| 20260507184543 | 20 | 301 | 1.6 | 6.4 | 0.00 | 0.00 | 0.00 | 49 | 1019.9 |
| 20260507184043 | 20 | 321 | 3.2 | 6.4 | 0.00 | 0.00 | 0.00 | 50 | 1019.8 |
| 20260507183543 | 20 | 318 | 3.2 | 6.4 | 0.00 | 0.00 | 0.00 | 50 | 1019.8 |
| 20260507183051 | 20 | 277 | 3.2 | 6.4 | 0.00 | 0.00 | 0.00 | 50 | 1019.8 |
| 20260507182543 | 20 | 299 | 1.6 | 11.3 | 0.00 | 0.00 | 0.00 | 51 | 1019.7 |
| 20260507182041 | 20 | 298 | 4.8 | 12.9 | 0.00 | 0.00 | 0.00 | 51 | 1019.8 |
| 20260507181542 | 20 | 268 | 6.4 | 12.9 | 0.00 | 0.00 | 0.00 | 51 | 1019.9 |
| 20260507181042 | 20 | 319 | 3.2 | 9.7 | 0.00 | 0.00 | 0.00 | 50 | 1019.8 |
| 20260507180545 | 20 | 275 | 4.8 | 9.7 | 0.00 | 0.00 | 0.00 | 49 | 1019.7 |
| 20260507180050 | 20 | 286 | 3.2 | 11.3 | 0.00 | 0.00 | 0.00 | 49 | 1019.8 |
| 20260507175541 | 20 | 267 | 4.8 | 14.5 | 0.00 | 0.00 | 0.00 | 48 | 1019.7 |
| 20260507175041 | 20 | 272 | 11.3 | 14.5 | 0.00 | 0.00 | 0.00 | 47 | 1019.7 |
| 20260507174541 | 20 | 258 | 6.4 | 14.5 | 0.00 | 0.00 | 0.00 | 48 | 1019.5 |
| 20260507174040 | 20 | 294 | 6.4 | 14.5 | 0.00 | 0.00 | 0.00 | 47 | 1019.6 |
| 20260507173543 | 20 | 269 | 8.0 | 14.5 | 0.00 | 0.00 | 0.00 | 47 | 1019.7 |
| 20260507173055 | 20 | 273 | 8.0 | 17.7 | 0.00 | 0.00 | 0.00 | 47 | 1019.8 |
| 20260507172539 | 20 | 268 | 12.9 | 17.7 | 0.00 | 0.00 | 0.00 | 46 | 1019.8 |
| 20260507172040 | 21 | 269 | 8.0 | 12.9 | 0.00 | 0.00 | 0.00 | 46 | 1019.7 |
| 20260507171539 | 21 | 271 | 8.0 | 20.9 | 0.00 | 0.00 | 0.00 | 43 | 1019.7 |
| 20260507171040 | 21 | 250 | 11.3 | 20.9 | 0.00 | 0.00 | 0.00 | 38 | 1019.6 |
| 20260507170539 | 21 | 258 | 9.7 | 14.5 | 0.00 | 0.00 | 0.00 | 38 | 1019.4 |
| 20260507170049 | 21 | 277 | 4.8 | 9.7 | 0.00 | 0.00 | 0.00 | 39 | 1019.3 |
| 20260507165539 | 21 | 264 | 1.6 | 8.0 | 0.00 | 0.00 | 0.00 | 39 | 1019.1 |
| 20260507165039 | 21 | 256 | 4.8 | 8.0 | 0.00 | 0.00 | 0.00 | 39 | 1019.1 |
| 20260507164538 | 21 | 338 | 3.2 | 9.7 | 0.00 | 0.00 | 0.00 | 40 | 1019.0 |
| 20260507164038 | 21 | 257 | 3.2 | 9.7 | 0.00 | 0.00 | 0.00 | 39 | 1018.9 |
| 20260507163539 | 21 | 250 | 3.2 | 8.0 | 0.00 | 0.00 | 0.00 | 38 | 1019.1 |
| 20260507163038 | 21 | 220 | 4.8 | 12.9 | 0.00 | 0.00 | 0.00 | 39 | 1019.0 |
| 20260507162539 | 22 | 226 | 8.0 | 19.3 | 0.00 | 0.00 | 0.00 | 38 | 1019.1 |
| 20260507162038 | 22 | 185 | 9.7 | 19.3 | 0.00 | 0.00 | 0.00 | 37 | 1019.1 |
| 20260507161540 | 22 | 217 | 11.3 | 19.3 | 0.00 | 0.00 | 0.00 | 37 | 1019.1 |
| 20260507161037 | 21 | 251 | 8.0 | 16.1 | 0.00 | 0.00 | 0.00 | 38 | 1019.2 |
| 20260507160538 | 22 | 263 | 8.0 | 16.1 | 0.00 | 0.00 | 0.00 | 38 | 1019.2 |
| 20260507160038 | 22 | 267 | 8.0 | 16.1 | 0.00 | 0.00 | 0.00 | 37 | 1019.3 |
| 20260507155537 | 21 | 269 | 9.7 | 14.5 | 0.00 | 0.00 | 0.00 | 41 | 1019.2 |
| 20260507155040 | 22 | 223 | 6.4 | 17.7 | 0.00 | 0.00 | 0.00 | 39 | 1019.3 |
| 20260507154537 | 22 | 244 | 11.3 | 19.3 | 0.00 | 0.00 | 0.00 | 37 | 1019.4 |
| 20260507154036 | 22 | 215 | 8.0 | 19.3 | 0.00 | 0.00 | 0.00 | 41 | 1019.4 |
| 20260507153536 | 22 | 246 | 4.8 | 17.7 | 0.00 | 0.00 | 0.00 | 38 | 1019.5 |
| 20260507153035 | 22 | 244 | 14.5 | 19.3 | 0.00 | 0.00 | 0.00 | 37 | 1019.6 |
| 20260507152535 | 22 | 237 | 8.0 | 19.3 | 0.00 | 0.00 | 0.00 | 39 | 1019.6 |
| 20260507152034 | 22 | 235 | 12.9 | 17.7 | 0.00 | 0.00 | 0.00 | 37 | 1019.7 |
| 20260507151535 | 22 | 201 | 12.9 | 17.7 | 0.00 | 0.00 | 0.00 | 37 | 1019.7 |
| 20260507151034 | 22 | 215 | 11.3 | 20.9 | 0.00 | 0.00 | 0.00 | 37 | 1019.6 |
| 20260507150534 | 22 | 251 | 14.5 | 20.9 | 0.00 | 0.00 | 0.00 | 37 | 1019.6 |
| 20260507150034 | 22 | 241 | 11.3 | 20.9 | 0.00 | 0.00 | 0.00 | 40 | 1019.6 |
| 20260507145532 | 22 | 271 | 11.3 | 20.9 | 0.00 | 0.00 | 0.00 | 41 | 1019.6 |
| 20260507145032 | 22 | 251 | 11.3 | 20.9 | 0.00 | 0.00 | 0.00 | 37 | 1019.5 |
| 20260507144532 | 22 | 249 | 16.1 | 20.9 | 0.00 | 0.00 | 0.00 | 35 | 1019.6 |
| 20260507144032 | 23 | 198 | 8.0 | 19.3 | 0.00 | 0.00 | 0.00 | 35 | 1019.5 |
| 20260507143531 | 23 | 214 | 11.3 | 19.3 | 0.00 | 0.00 | 0.00 | 36 | 1019.6 |
| 20260507143031 | 22 | 225 | 12.9 | 19.3 | 0.00 | 0.00 | 0.00 | 36 | 1019.6 |
| 20260507142531 | 23 | 234 | 9.7 | 25.7 | 0.00 | 0.00 | 0.00 | 36 | 1019.6 |
| 20260507142030 | 23 | 202 | 12.9 | 27.4 | 0.00 | 0.00 | 0.00 | 36 | 1019.5 |
| 20260507141531 | 23 | 240 | 17.7 | 32.2 | 0.00 | 0.00 | 0.00 | 33 | 1019.5 |
| 20260507141032 | 23 | 230 | 19.3 | 32.2 | 0.00 | 0.00 | 0.00 | 34 | 1019.4 |
| 20260507140529 | 23 | 206 | 12.9 | 25.7 | 0.00 | 0.00 | 0.00 | 35 | 1019.2 |
| 20260507140034 | 23 | 184 | 14.5 | 22.5 | 0.00 | 0.00 | 0.00 | 33 | 1019.2 |
| 20260507135528 | 23 | 158 | 16.1 | 20.9 | 0.00 | 0.00 | 0.00 | 34 | 1019.1 |
| 20260507135028 | 23 | 254 | 12.9 | 30.6 | 0.00 | 0.00 | 0.00 | 33 | 1019.2 |
| 20260507134527 | 23 | 229 | 14.5 | 29.0 | 0.00 | 0.00 | 0.00 | 34 | 1018.9 |
| 20260507134026 | 23 | 193 | 14.5 | 22.5 | 0.00 | 0.00 | 0.00 | 32 | 1019.0 |
| 20260507133525 | 23 | 259 | 11.3 | 22.5 | 0.00 | 0.00 | 0.00 | 39 | 1018.9 |
| 20260507133024 | 23 | 249 | 11.3 | 19.3 | 0.00 | 0.00 | 0.00 | 38 | 1018.8 |
| 20260507132522 | 23 | 219 | 12.9 | 24.1 | 0.00 | 0.00 | 0.00 | 41 | 1018.9 |
| 20260507132022 | 22 | 261 | 16.1 | 19.3 | 0.00 | 0.00 | 0.00 | 41 | 1018.9 |
| 20260507131521 | 23 | 262 | 12.9 | 19.3 | 0.00 | 0.00 | 0.00 | 44 | 1019.0 |